Regional Weather Roundup
Issued by NWS

Home | Current Version | Previous Version | Graphics & Text | Print | Product List | Glossary Off
Versions: 1 2 3 4 5 6 7 8 9 10 11 12 13 14 15 16 17 18 19 20 21 22 23 24 25 26 27 28 29 30 31 32 33 34 35 36 37 38 39 40 41 42 43 44 45 46 47 48 49 50

000
ASUS43 KTOP 231859
RWRKS

WEATHER ROUNDUP FOR KANSAS
NATIONAL WEATHER SERVICE GOODLAND KS
200 PM CDT SAT JUL 23 2016

NOTE:  "FAIR" INDICATES FEW OR NO CLOUDS BELOW 12,000 FEET WITH NO
SIGNIFICANT WEATHER AND/OR OBSTRUCTIONS TO VISIBILITY.

KSZ001>006-013>018-027>032-041>047-232000-
NORTHWEST KANSAS

CITY           SKY/WX    TMP DP  RH WIND       PRES   REMARKS
GOODLAND       SUNNY     97  55  24 N12       29.95S HX  95
HAYS           SUNNY    102  63  27 S20G30    29.83F HX 104
HILL CITY      SUNNY     97  64  33 SW9       29.85F HX  99
RUSSELL        PTSUNNY  100  62  28 S26G32    29.83F HX 101
$$

KSZ061>065-074>080-084>089-232000-
SOUTHWEST KANSAS

CITY           SKY/WX    TMP DP  RH WIND       PRES   REMARKS
DODGE CITY     SUNNY     97  56  25 S21G31    29.90F HX  95
ELKHART          N/A    100  57  23 SW14        N/A  HX  99
GARDEN CITY    SUNNY     97  62  31 S21       29.89F HX  98
GREAT BEND     CLOUDY    99  61  28 S21       29.86F HX  99
LIBERAL        SUNNY    100  57  23 S23       29.94F HX  99
$$

KSZ066>073-081>083-090>101-232000-
SOUTHEAST KANSAS

CITY           SKY/WX    TMP DP  RH WIND       PRES   REMARKS
CHANUTE        MOSUNNY   95  72  47 SW16      29.93F HX 103
COFFEYVILLE    SUNNY     98  70  40 S16       29.92F HX 105
HUTCHINSON     CLOUDY   100  63  29 S24       29.87F HX 102
NEWTON         MOSUNNY   98  66  34 SW23      29.89F HX 101
PARSONS        SUNNY     96  70  42 S13G20    29.94F HX 102
WICHITA INTL   PTSUNNY  101  63  28 S14       29.88F HX 103
WICHITA JABRA  MOSUNNY   98  70  40 S13       29.89F HX 105
WINFIELD       SUNNY    101  65  30 S17G24    29.91F HX 104
$$

KSZ007>012-019>026-033>040-048>060-102>105-232000-
NORTHEAST KANSAS

CITY           SKY/WX    TMP DP  RH WIND       PRES   REMARKS
CONCORDIA      PTSUNNY   93  70  46 S15       29.85F HX  99
EMPORIA        MOSUNNY   96  70  42 S15       29.90F HX 102
LAWRENCE       PTSUNNY   94  76  55 S14       29.89F HX 106
MANHATTAN      CLOUDY    95  69  42 S10G20    29.85F HX 100
OLATHE IND     MOSUNNY   92  75  57 S14       29.93S HX 103
OLATHE EXE     PTSUNNY   89  72  56 S8        29.93F HX  96
SALINA         CLOUDY   100  65  31 S16G25    29.84F HX 103
TOPEKA BILLARD MOSUNNY   93  71  48 S13       29.88S HX 100
TOPEKA FORBES  PTSUNNY   95  73  48 S13       29.89F HX 104
$$




USA.gov is the U.S. government's official web portal to all federal, state and local government web resources and services.